Probability
4 3 4 4 3 2 4 6 6 5 3 2 1 0 0 1 1 1 1 0 0 0 0 1 0 0 0 1 1 2 2 2 1 0 0 0 0 0 0 0 0 0 0
6 6 7 7 6 5 5 7 7 6 5 4 3 2 2 2 2 3 3 2 0 0 1 2 1 0 0 1 2 2 2 2 2 1 0 0 0 0 0 0 0 0 0
9 8 8 9 8 8 8 8 9 9 8 7 6 4 3 4 5 6 5 4 2 1 1 2 2 1 0 1 1 1 1 2 3 3 1 1 0 0 0 0 0 0 0
11 10 9 10 10 9 8 9 9 9 8 7 6 5 5 5 6 6 5 5 4 3 2 2 2 1 1 1 2 2 2 2 3 3 2 1 1 0 0 0 0 0 0
12 11 11 12 12 11 10 8 8 8 8 7 6 5 5 6 6 5 6 7 7 7 5 3 2 2 2 3 5 5 5 5 4 2 2 1 1 0 0 0 0 0 0
11 10 10 11 12 12 11 9 8 8 8 8 7 6 6 6 6 6 7 8 9 9 8 7 6 4 3 4 5 6 7 6 5 3 1 0 1 1 0 0 0 0 0
11 10 9 9 10 11 11 10 9 8 8 9 8 7 7 6 7 8 8 7 8 8 8 9 10 9 6 5 5 6 6 5 4 4 3 1 1 1 0 0 0 0 0
13 12 10 8 7 9 9 9 9 9 8 8 8 7 6 6 7 8 7 6 6 8 10 12 15 14 11 9 7 6 6 5 3 4 4 2 1 1 0 0 0 0 0
15 15 14 10 7 7 8 8 9 9 9 8 7 7 6 5 5 5 5 5 7 9 11 14 16 16 14 13 11 8 6 4 3 4 5 5 4 3 2 1 1 1 0
19 20 20 16 11 9 8 9 9 9 8 7 7 7 6 5 4 4 3 3 6 8 10 12 13 12 13 15 15 12 7 3 1 3 5 6 5 5 4 3 3 2 2
24 24 26 24 20 16 14 14 12 11 9 7 7 6 5 4 4 4 2 1 2 5 8 10 9 9 12 15 16 11 5 1 0 1 2 3 4 5 4 3 3 3 3
29 28 29 29 28 25 23 20 15 12 10 8 7 5 4 3 3 3 2 0 0 2 4 6 7 9 12 14 12 6 2 0 0 0 0 0 1 3 3 2 2 2 2
34 34 35 36 34 30 28 23 17 12 11 9 8 6 5 4 3 2 1 1 1 1 2 3 4 8 11 13 10 3 0 0 0 0 0 0 1 2 3 2 1 1 1
37 41 44 43 38 32 28 24 19 14 11 10 9 9 8 7 6 4 2 3 3 2 1 2 4 6 8 10 8 3 1 1 0 0 0 0 0 1 1 1 1 1 0
37 43 48 47 42 35 30 26 22 16 12 11 11 10 11 11 10 8 6 6 7 4 2 2 5 6 5 5 4 4 4 2 0 0 0 0 0 0 0 0 0 0 0
36 41 46 45 42 38 33 28 22 17 16 15 13 11 12 12 12 11 9 9 10 8 5 4 6 6 5 3 4 5 5 2 0 0 0 0 0 0 0 0 0 0 0
34 39 43 41 39 36 31 25 19 17 18 18 15 12 13 14 14 13 12 12 12 11 7 5 5 7 7 7 6 6 4 1 1 0 0 0 0 0 0 0 0 0 0
31 35 37 35 32 27 25 21 17 16 18 18 17 16 15 16 17 16 14 13 13 12 8 6 6 7 8 9 8 6 2 1 1 0 0 0 0 0 0 0 0 0 0
35 36 34 30 25 22 21 21 20 19 19 19 19 18 16 16 17 18 16 13 12 11 10 9 8 7 6 7 8 6 3 2 1 0 0 0 0 0 0 0 0 0 0
42 41 36 30 25 21 21 25 26 25 23 21 19 16 13 12 12 15 15 13 11 10 10 10 8 6 4 5 6 5 4 3 2 0 0 0 0 0 0 0 1 1 0
47 45 39 33 27 22 20 24 28 27 25 21 16 11 9 7 7 8 10 10 8 9 10 9 8 6 4 4 4 3 2 1 1 0 0 0 0 1 1 1 2 1 1
51 48 41 34 28 20 16 16 21 25 24 20 15 11 9 7 6 5 5 4 4 6 8 9 8 7 4 3 2 1 0 0 0 0 0 0 1 2 2 3 2 1 0
53 48 40 33 26 17 10 8 12 20 22 20 17 15 11 8 7 6 4 2 2 3 4 6 6 5 3 1 0 0 0 0 0 0 0 0 1 3 3 3 2 1 0
51 46 37 31 23 13 7 5 9 15 20 20 19 17 14 9 7 6 6 6 5 4 3 3 3 3 2 1 0 1 1 0 0 0 0 1 2 3 4 3 2 1 0
46 42 35 28 19 10 7 6 9 14 17 17 17 16 13 10 7 6 7 9 8 6 4 2 1 1 2 1 1 1 1 1 1 1 1 2 3 3 3 3 2 1 0
41 38 33 26 18 11 7 6 8 13 15 15 15 14 11 10 8 7 9 11 10 8 6 3 1 0 1 1 1 1 2 2 2 2 2 3 3 3 3 3 2 1 0
Wind_Speed
2 3 2 1 1 1 2 1 1 1 1 1 0 0 2 3 4 6 5 10 10 10 10 10 9 9 8 8 8 8 8 8 8 7 7 7 7 7 7 7 7 7 7
3 3 2 1 1 1 2 1 1 0 0 0 0 1 1 2 4 6 6 8 10 10 10 10 10 9 9 9 9 9 9 9 8 8 7 7 8 8 8 8 7 7 7
3 2 2 1 1 1 1 0 0 0 1 0 1 0 0 1 3 5 6 6 7 10 11 11 10 10 10 10 10 10 9 9 9 9 8 8 8 8 8 8 8 8 8
2 2 2 1 1 1 0 0 0 0 0 0 1 1 1 1 3 4 5 6 6 7 10 12 11 11 11 11 10 10 10 10 10 10 10 9 9 9 9 9 9 8 8
2 2 1 1 1 0 0 0 1 0 1 1 1 2 3 3 3 4 4 5 6 6 7 10 13 12 12 11 10 10 10 11 11 11 11 11 11 10 10 10 10 9 9
2 1 1 1 1 0 1 1 1 1 1 2 3 2 3 3 3 3 4 4 4 6 7 8 8 9 11 11 10 10 10 10 10 10 11 11 12 11 11 11 10 10 10
3 1 1 1 1 0 1 1 1 2 2 2 2 2 2 3 4 3 3 2 3 4 5 6 6 5 6 11 10 10 11 11 10 10 10 11 11 11 11 12 11 11 11
3 3 3 2 1 1 1 1 1 2 2 1 1 1 1 2 2 4 3 3 3 2 3 6 5 5 4 5 6 10 11 11 11 11 11 11 11 11 11 12 12 11 11
3 2 2 2 2 2 2 2 2 2 2 2 1 1 0 1 2 1 2 2 3 2 2 3 5 5 4 4 5 9 11 10 11 11 11 11 11 11 12 12 13 12 11
3 3 3 2 2 1 2 3 2 2 2 3 2 1 2 1 1 1 1 1 3 3 2 2 3 4 4 3 3 5 8 8 9 10 10 10 10 10 11 12 13 12 12
4 4 3 3 2 2 2 2 1 2 2 2 2 1 1 1 2 1 1 1 1 1 2 2 1 2 3 3 3 3 6 7 6 7 7 8 9 9 10 11 12 12 12
3 4 4 3 3 3 2 2 2 2 1 2 2 2 1 1 1 1 2 1 1 1 1 1 2 2 2 3 3 4 6 6 6 5 5 5 6 7 8 9 10 10 10
3 4 4 4 3 3 3 2 2 2 2 2 2 2 2 2 2 1 1 1 1 1 1 0 1 1 2 2 2 4 4 5 5 4 3 3 3 4 4 5 6 6 6
3 4 4 4 3 3 3 2 2 2 2 2 3 2 2 2 2 1 1 1 1 1 0 0 1 2 1 2 4 4 2 4 5 4 3 3 2 2 2 2 3 3 3
3 4 4 4 3 3 2 2 1 1 1 1 2 2 2 2 2 1 1 1 1 1 2 0 0 1 1 2 4 2 3 4 4 4 4 4 3 3 3 3 2 2 2
1 3 3 3 3 3 2 2 1 1 1 1 1 1 2 2 2 1 1 1 1 1 1 0 0 0 0 1 3 2 3 6 5 5 5 5 4 4 3 3 2 2 1
2 2 3 3 3 2 2 2 2 1 1 0 1 0 1 1 2 2 1 1 1 0 1 1 0 0 1 1 2 1 2 3 3 5 5 5 5 4 4 4 3 2 2
3 2 2 2 2 2 2 2 2 1 0 0 1 1 1 1 2 2 2 2 1 0 0 1 1 1 0 1 1 1 1 2 2 4 6 6 6 5 5 4 3 2 2
3 2 2 2 2 1 1 1 1 0 1 1 1 1 1 2 2 2 2 2 1 1 0 0 0 1 1 1 1 1 1 0 2 3 5 5 6 6 5 4 4 2 2
3 3 2 2 2 1 1 1 1 1 1 2 2 2 3 3 3 2 2 2 2 1 1 1 1 1 1 1 1 1 0 1 1 1 2 3 4 5 5 5 4 3 3
3 3 2 2 1 1 1 0 1 2 2 2 2 3 4 5 6 4 3 3 2 2 1 1 1 1 1 2 2 1 1 0 1 0 1 1 2 2 2 3 3 3 3
2 2 2 1 2 1 2 2 2 1 3 2 2 2 3 4 5 7 7 7 5 3 2 2 1 2 2 2 2 2 1 1 1 0 0 1 2 1 1 2 3 4 4
3 2 2 2 3 4 6 5 3 2 3 2 2 1 1 3 3 3 3 5 5 6 4 2 2 2 2 3 3 2 2 1 1 1 0 0 1 1 1 2 4 4 4
3 3 3 3 4 5 6 6 4 2 3 3 3 3 4 4 5 4 2 3 3 4 3 3 2 2 2 2 2 2 2 1 0 2 1 1 1 1 1 1 3 4 3
3 3 3 4 5 5 7 6 4 2 4 4 4 5 5 4 6 5 3 3 3 2 4 4 2 1 2 4 3 3 3 2 1 2 3 2 1 1 1 1 2 3 2
3 4 5 5 5 5 6 6 4 2 4 4 4 5 8 6 6 6 3 3 3 2 1 1 1 1 1 2 4 2 3 2 2 2 3 2 2 2 2 1 0 1 2
Wind_Direction
108 97 86 75 75 92 100 62 46 57 51 21 16 109 94 101 119 129 140 157 158 161 163 166 169 171 173 175 179 182 182 183 182 182 186 188 186 186 188 189 188 186 187
103 103 101 80 64 71 80 103 133 82 330 104 13 29 114 137 127 135 147 163 169 172 176 177 179 182 184 186 190 193 193 194 193 193 196 198 196 197 199 201 199 195 193
119 124 128 132 108 98 111 141 108 310 237 179 156 253 187 157 144 152 157 165 174 184 187 187 188 190 193 196 198 201 201 201 201 201 203 204 206 205 206 208 208 203 199
127 135 129 142 135 133 125 156 190 294 340 274 230 242 207 182 178 179 172 170 172 178 192 195 195 197 201 203 205 206 206 206 208 207 208 209 211 211 211 213 215 211 207
131 127 129 129 241 190 135 277 73 284 263 268 245 224 220 198 197 201 184 176 176 172 176 193 199 202 204 205 209 210 209 210 212 214 214 216 216 215 215 216 219 217 215
131 135 150 195 259 79 62 26 315 283 263 263 267 245 230 209 195 197 203 189 179 180 180 178 189 204 206 206 210 214 215 215 215 217 219 221 221 217 216 218 221 222 221
160 186 171 182 276 27 234 231 274 271 258 241 265 277 252 220 199 187 201 195 183 184 172 166 180 185 194 209 211 214 218 222 221 220 222 224 223 219 218 218 218 220 221
184 190 192 201 195 208 238 265 273 289 287 262 274 309 304 303 261 199 184 184 182 175 176 180 177 174 176 177 203 213 220 223 226 225 224 225 226 223 221 221 220 219 220
195 194 186 210 210 220 218 234 240 261 285 292 257 207 243 267 303 270 193 179 168 178 191 171 168 170 183 170 182 210 218 222 227 228 227 226 227 225 223 224 223 220 219
199 196 199 209 234 232 214 238 214 249 269 284 280 222 222 196 231 312 313 188 185 181 189 210 170 170 180 171 160 169 200 215 225 231 231 230 226 226 224 225 227 227 224
205 204 194 197 222 234 238 253 248 266 280 286 297 285 255 240 226 211 262 284 297 183 183 182 180 157 163 160 161 152 172 195 209 226 234 233 229 228 227 227 231 232 228
205 206 203 193 205 224 232 233 245 252 272 310 312 311 301 272 257 237 239 245 257 286 206 169 186 160 148 145 146 143 158 177 194 209 224 232 232 229 228 229 232 234 234
202 199 202 188 202 208 221 225 233 250 265 280 285 288 295 289 288 270 248 258 250 252 230 149 119 126 129 125 125 122 137 160 171 183 197 208 214 218 219 222 228 233 237
207 177 181 185 195 206 220 207 226 221 227 254 275 282 291 289 292 290 258 252 270 266 292 242 66 90 97 113 111 124 119 136 145 152 156 150 144 151 166 188 202 213 220
189 164 169 176 190 200 220 212 223 250 250 247 269 281 286 297 291 291 272 241 229 254 259 269 70 83 124 106 121 131 119 122 138 143 140 135 130 124 123 128 141 158 168
196 145 159 172 186 189 195 210 218 239 236 248 273 330 332 327 316 307 302 298 248 225 240 303 150 172 50 108 115 113 126 122 126 133 135 139 138 130 122 117 112 111 135
191 173 175 184 189 190 203 211 224 254 234 247 297 356 329 319 329 337 334 355 353 46 200 272 300 275 81 99 133 161 133 129 134 146 146 144 137 132 129 122 115 108 103
201 193 192 194 203 196 207 213 224 247 245 346 344 2 342 337 351 345 349 11 9 17 152 241 294 342 46 118 151 184 140 163 146 145 151 149 145 142 136 130 128 128 123
191 196 191 197 193 186 188 183 190 58 29 30 20 37 19 0 1 358 346 344 337 359 96 169 230 23 53 19 58 97 124 154 132 133 143 150 153 152 150 147 142 142 148
192 193 177 184 175 158 132 122 129 102 64 51 42 42 37 19 1 338 338 349 358 6 40 72 75 43 21 9 44 355 17 39 82 140 105 128 148 152 157 154 154 159 172
179 162 159 160 159 139 93 99 150 125 99 78 56 58 63 56 46 32 23 24 18 16 29 49 54 40 22 21 7 325 7 5 348 134 144 145 153 147 153 161 159 165 174
119 115 125 115 103 99 52 62 93 106 106 106 87 72 85 73 65 63 60 52 40 41 35 42 52 48 25 18 359 344 1 318 313 309 137 221 153 142 158 150 143 146 157
112 101 95 94 81 60 48 51 69 98 98 91 83 75 71 73 75 67 77 75 53 44 43 44 51 28 15 360 344 340 349 338 328 311 359 334 88 79 105 122 149 163 167
110 103 88 88 86 66 55 53 47 93 90 78 64 56 62 53 33 24 50 73 64 39 40 62 56 33 31 5 344 320 312 319 3 7 22 353 35 54 66 132 171 168 166
102 103 101 97 92 68 55 59 47 99 91 79 68 57 56 56 29 25 45 71 75 59 61 69 90 87 52 30 18 7 0 6 358 16 13 2 2 351 334 159 176 192 198
106 101 95 90 89 77 64 59 48 96 95 86 76 68 57 51 36 31 40 47 54 26 30 70 61 55 66 58 49 36 7 3 15 8 9 359 359 7 344 344 18 215 214